Location: Chisos Basin
(29.2675°N, 103.3000°W)
Time: 18:36:14
(UTC-05:00)

ISS - Visible Passes

Search period start: 21 October 2019 00:00
Search period end: 31 October 2019 00:00
Orbit: 411 x 421 km, 51.6° (Epoch: 21 October)

Date Brightness Start Highest point End Pass type
(mag) Time Alt. Az. Time Alt. Az. Time Alt. Az.
21 Oct -0.4 06:44:56 10° SE 06:45:47 11° SE 06:46:37 10° ESE visible
22 Oct -3.7 07:30:14 10° SW 07:33:35 87° SE 07:36:57 10° NE visible
23 Oct -2.4 06:42:08 11° SSW 06:45:05 39° SE 06:48:15 10° ENE visible
24 Oct -1.1 05:56:54 19° ESE 05:56:54 19° ESE 05:59:06 10° E visible
24 Oct -2.5 07:30:20 10° W 07:33:12 25° NW 07:36:04 10° NNE visible
25 Oct -3.6 06:44:19 48° WNW 06:44:32 49° NW 06:47:48 10° NNE visible
26 Oct -1.0 05:58:30 16° NE 05:58:30 16° NE 05:59:17 10° NE visible
27 Oct -1.5 06:45:24 14° NNW 06:45:24 14° NNW 06:46:24 10° N visible
